Regional Weather Roundup
Issued by NWS

Home | Current Version | Previous Version | Graphics & Text | Print | Product List | Glossary On
Versions: 1 2 3 4 5 6 7 8 9 10 11 12 13 14 15 16 17 18 19 20 21 22 23 24 25 26 27 28 29 30 31 32 33 34 35 36 37 38 39 40 41 42 43 44 45 46 47 48 49 50
726
ASUS43 KLOT 232108
RWRIL

ILLINOIS REGIONAL WEATHER ROUNDUP
NATIONAL WEATHER SERVICE CHICAGO/ROMEOVILLE IL
400 PM CDT SAT JUL 23 2016

NOTE: "FAIR" INDICATES FEW OR NO CLOUDS BELOW 12,000 FEET WITH NO
SIGNIFICANT WEATHER AND/OR OBSTRUCTIONS TO VISIBILITY.

* THESE STATIONS ARE NOT UNDER NWS QUALITY CONTROL. THEY ALSO MAY NOT
  REPORT WEATHER SUCH AS PRECIPITATION OR FOG.

ILZ001-002-007-009-015-016-024-232200-
NORTHWEST ILLINOIS

CITY           SKY/WX    TMP DP  RH WIND       PRES   REMARKS
MOLINE         CLOUDY    91  79  67 SE10      29.89F HX 107
STERLING*      PTSUNNY   87  78  74 VRB5      29.93  HX 100
SAVANNA*       CLOUDY    87  79  77 SE8       29.92R HX 101
$$

ILZ003-004-008-010-011-017-018-232200-
NORTH CENTRAL ILLINOIS

CITY           SKY/WX    TMP DP  RH WIND       PRES   REMARKS
ROCKFORD       CLOUDY    86  77  74 NW9       29.95F HX  97
FREEPORT*      CLOUDY    76  72  86 NE3       29.97R
ROCHELLE*      CLOUDY    85  78  79 S6        29.94S HX  97
DE KALB*       CLOUDY    86  79  79 S9        29.96S HX  99
$$

ILZ005-006-012>014-019>023-232200-
NORTHEAST ILLINOIS

CITY           SKY/WX    TMP DP  RH WIND       PRES   REMARKS
CHICAGO-OHARE  CLOUDY    90  74  59 S10       29.91F HX  99
CHICAGO-MIDWAY CLOUDY    92  73  53 SW8       29.92F HX 100
AURORA         CLOUDY    89  78  70 S8        29.93F HX 103
LANSING*       MOSUNNY   90  75  62 S8        29.94F HX 101
JOLIET*        PTSUNNY   89  78  70 SW6       29.92F HX 104
WAUKEGAN       CLOUDY    81  77  88 E6        29.94F HX  88
DUPAGE AIRPORT PTSUNNY   88  75  65 S8        29.92F HX  97
WHEELING       CLOUDY    88  76  67 E9        29.93F HX  99
MORRIS*        CLOUDY    88  77  69 S6        29.92F HX  99
ROMEOVILLE*    MOSUNNY   87  73  63 S7        29.92F HX  95
NORTHERLY ISL    N/A     83  76  79 E6          N/A  HX  91
$$

LMZ740>746-232200-
SOUTHERN LAKE MICHIGAN

STATION/POSITION SKY/WX   TEMP    WIND        PRES    VSBY  WAVE
                          AIR SEA DIR/SP/G                  HT/PER
                          (F)     (DEG/KT/KT) (MB)    (MI)  (FT/S)
SOUTHERN BUOY              78 78   70/  4/  4 1013.5F         0
WILMETTE HARBOR            78 74  110/  4/  6   N/A           1
HARRISON CRIB              81      90/  6/  6   N/A
BURNHAM HARBOR             82      CALM  /  5   N/A
CALUMET HARBOR             82      80/  8/ 11 1013.9F
BURNS HARBOR               82      70/  6/  7 1014.9F
MICHIGAN CITY              80      10/  7/  7   N/A
MICHIGAN CITY 6N           80 79   40/  6/  8   N/A           1
ST. JOSEPH                 81     320/  2/  4 1013.8F         1
$$

ILZ025>027-034>036-040-047-049-050-058-095>099-232200-
WEST-CENTRAL ILLINOIS

CITY           SKY/WX    TMP DP  RH WIND       PRES   REMARKS
QUINCY         SUNNY     93  79  63 S9        29.90F HX 110
GALESBURG*     CLOUDY    89  79  72 S8        29.91S HX 104
MACOMB*        MOSUNNY   90  81  74 S10       29.93F HX 108
JACKSONVILLE*  SUNNY     90  78  68 SE10      29.93F HX 104
PITTSFIELD*    SUNNY     91  81  74 SE7       29.93F HX 111
$$

ILZ028>032-037-038-041>044-048-051>054-059>061-232200-
CENTRAL ILLINOIS

CITY           SKY/WX    TMP DP  RH WIND       PRES   REMARKS
PONTIAC        PTSUNNY   88  80  78 S5        29.95F HAZE    HX 105
DECATUR        MOSUNNY   91  76  61 S9        29.95F HX 103
PEORIA         MOSUNNY   90  78  68 S9        29.93F HX 104
LACON*         CLOUDY    88  77  69 S6        29.92F HX  99
LINCOLN*       SUNNY     90  79  69 S8        29.93F HX 105
SPRINGFIELD    SUNNY     91  76  61 S7        29.94F HX 103
TAYLORVILLE    MOSUNNY   89  77  67 NW7       29.96F HX 100
$$

ILZ033-039-045-046-055>057-062-063-232200-
EAST-CENTRAL ILLINOIS

CITY           SKY/WX    TMP DP  RH WIND       PRES   REMARKS
CHAMPAIGN      PTSUNNY   88  78  72 S6        29.97F HX 101
MATTOON        MOSUNNY   87  74  64 SE6       29.97F HX  95
PARIS*         PTSUNNY   88  78  72 CALM      29.99F HX 101
$$

ILZ079-100>102-232200-
SOUTHWEST ILLINOIS

CITY           SKY/WX    TMP DP  RH WIND       PRES   REMARKS
BELLEVILLE     SUNNY     92  78  63 CALM      29.93F HX 106
CAHOKIA*       SUNNY     94  74  52 SE9       29.93F HX 104
SPARTA*        SUNNY     90  74  59 CALM      29.96F HX 100
$$

ILZ064>066-069>071-074>076-080>082-084>086-088>090-092>094-232200-
SOUTH-CENTRAL ILLINOIS

CITY           SKY/WX    TMP DP  RH WIND       PRES   REMARKS
CARBONDALE     SUNNY     91  72  53 SE5       29.94F HX  98
CAIRO*         MOSUNNY   88  77  69 CALM      29.93F HX  99
EFFINGHAM*     MOSUNNY   90  77  65 SE5       29.99F HX 104
MARION         MOSUNNY   91  75  59 N6        29.96F HX 102
MT. VERNON     MOSUNNY   93  75  55 SE6       29.96F HX 104
CENTRALIA*     SUNNY     92  78  63 E3        29.95F HX 106
SALEM*         PTSUNNY   91  75  60 SE6       29.96F HX 101
METROPOLIS*    SUNNY     91  76  61 CALM      29.95F HX 103
$$

ILZ067-068-072-073-078-083-087-091-232200-
SOUTHEAST ILLINOIS

CITY           SKY/WX    TMP DP  RH WIND       PRES   REMARKS
LAWRENCEVILLE  MOSUNNY   90  77  65 S3        29.97F HX 103
FLORA*         PTSUNNY   92  78  63 E6        29.97F HX 106
FAIRFIELD*     SUNNY     89  75  62 CALM      29.94F HX 100
HARRISBURG*    MOSUNNY   90  78  68 E3        29.96F HX 104
CARMI*         SUNNY     90  77  66 SE3       29.95F HX 102
$$

ABBREVIATIONS USED IN REMARKS
   TC - TEMPERATURE IN CELSIUS
  WCI - WIND CHILL INDEX
   HX - HEAT INDEX
  VSB - VISIBILITY
$$





USA.gov is the U.S. government's official web portal to all federal, state and local government web resources and services.